Date,TemperatureHighF,TemperatureAvgF,TemperatureLowF,DewpointHighF,DewpointAvgF,DewpointLowF,HumidityHigh,HumidityAvg,HumidityLow,PressureMaxIn,PressureMinIn,WindSpeedMaxMPH,WindSpeedAvgMPH,GustSpeedMaxMPH,PrecipitationSumIn
2013-2-1,63.0,54.1,48.5,58.0,52.0,48.0,100,93,71,30.37,29.81,20,9,24,0.01
2013-2-2,58.8,52.8,45.3,50.0,43.6,37.0,90,71,60,29.86,29.63,25,10,38,0.06
2013-2-3,50.2,46.9,37.7,37.0,32.2,27.0,80,58,43,30.34,29.86,32,11,43,0.00
2013-2-4,58.5,46.7,35.6,43.0,37.5,30.0,85,71,50,30.40,30.31,15,5,18,0.00
2013-2-5,62.5,52.6,45.1,52.0,46.6,41.0,97,81,55,30.32,29.98,17,6,20,0.00
2013-2-6,54.6,50.9,46.0,50.0,39.9,35.0,95,68,49,29.97,29.77,30,10,37,0.00
2013-2-7,50.8,46.2,38.3,40.0,33.2,25.0,91,62,40,30.09,29.82,29,8,41,0.20
2013-2-8,52.4,44.2,35.5,41.0,36.9,30.0,90,76,56,30.09,29.89,19,3,23,0.01
2013-2-9,48.0,44.4,38.4,40.0,33.4,29.0,89,67,49,30.19,30.01,27,10,34,0.00
2013-2-10,58.1,50.7,38.4,50.0,41.5,35.0,87,72,48,30.15,29.72,25,12,31,0.00
2013-2-11,56.2,50.5,46.4,50.0,38.8,33.0,85,65,48,29.74,29.63,28,10,30,0.00
2013-2-12,52.4,47.9,41.0,42.0,36.3,30.0,86,66,45,29.98,29.66,25,8,33,0.02
2013-2-13,53.4,45.9,37.6,44.0,40.6,35.0,94,82,69,30.16,29.96,11,3,14,0.00
2013-2-14,59.4,47.8,36.6,48.0,42.6,35.0,96,84,59,30.23,30.16,14,2,15,0.00
2013-2-15,60.0,50.5,41.6,53.0,45.6,41.0,99,84,63,30.21,30.11,15,4,18,0.01
2013-2-16,58.9,50.7,42.8,49.0,44.4,41.0,94,80,59,30.21,30.12,11,2,12,0.00
2013-2-17,57.0,50.5,42.0,50.0,47.0,41.0,96,88,76,30.13,29.95,9,2,14,0.00
2013-2-18,60.3,52.7,47.9,53.0,49.7,46.0,96,89,70,30.00,29.90,8,1,12,0.02
2013-2-19,55.9,51.4,43.8,51.0,46.5,39.0,97,84,69,30.02,29.94,12,4,16,0.01
2013-2-20,58.6,50.3,43.5,45.0,41.3,35.0,92,73,42,29.97,29.89,8,2,11,0.00
2013-2-21,62.8,50.3,36.2,55.0,45.9,36.0,98,86,57,29.94,29.72,14,4,16,0.00
2013-2-22,58.2,54.6,51.8,53.0,50.5,49.0,95,86,74,29.72,29.52,21,7,28,0.02
2013-2-23,52.4,43.8,35.7,51.0,40.8,34.0,97,89,73,29.89,29.37,23,7,41,0.03
2013-2-24,48.8,41.2,33.7,36.0,33.2,29.0,96,75,48,30.00,29.89,15,3,20,0.03
2013-2-25,43.7,39.7,36.0,39.0,36.4,34.0,94,88,76,30.14,29.98,15,4,19,0.01
2013-2-26,47.9,37.8,32.1,40.0,35.9,31.0,97,93,73,30.22,30.10,15,2,23,0.20
2013-2-27,51.8,41.6,28.8,43.0,35.9,28.0,98,82,58,30.23,30.10,10,3,16,0.01
2013-2-28,54.1,51.5,48.0,51.0,46.8,39.0,96,84,68,30.10,29.82,25,11,29,0.54